Weather History for Miami, FL

Change the Weather History Date:

Tuesday, December 31, 2013

  Actual Average Record
Temperature  
Mean Temperature 72 °F 68 °F  
Max Temperature 77 °F 77 °F 84 °F (1982)
Min Temperature 67 °F 60 °F 34 °F (1917)
Degree Days  
Heating Degree Days 0 2  
Month to date heating degree days 0 34  
Since 1 July heating degree days 2 37  
Cooling Degree Days 7 5  
Month to date cooling degree days 318 203  
Year to date cooling degree days 4859 4575  
Growing Degree Days 22 (Base 50)    
Moisture  
Dew Point 65 °F    
Average Humidity 74    
Maximum Humidity 84    
Minimum Humidity 64    
Precipitation  
Precipitation T in 0.06 in 1.15 in (1931)
Month to date precipitation 4.67 2.04  
Year to date precipitation 70.42 61.90  
Snow  
Snow 0.00 in - - ()
Month to date snowfall 0.0  
Since 1 July snowfall 0.0  
Snow Depth 0.00 in    
Sea Level Pressure  
Sea Level Pressure 30.17 in    
Wind  
Wind Speed 10 mph (NNE)    
Max Wind Speed 18 mph    
Max Gust Speed 24 mph    
Visibility 10 miles    
Events Rain    
T = Trace of Precipitation, MM = Missing Value Source: NWS Daily Summary

Daily Weather History Graph

Daily Weather History Graph

Search for Another Location

Airport:

Trip Planner

Search our weather history database for the weather conditions in past years. The results will help you decide how hot, cold, wet, or windy it might be!

Date:

Astronomy

Dec. 31, 2013 Rise Set
Actual Time 7:07 AM EST 5:41 PM EST
Civil Twilight 6:42 AM EST 6:06 PM EST
Nautical Twilight 6:13 AM EST 6:35 PM EST
Astronomical Twilight 5:45 AM EST 7:03 PM EST
Moon 6:03 AM EST (12/31) 5:11 PM EST (12/31)
Length of Visible Light 11h 23m
Length of Day
10h 33m
Waning Crescent, 1% of the Moon is Illuminated
Dec 31
Waning Crescent
Jan 1
New
Jan 7
First Quarter
Jan 15
Full
Jan 24
Last Quarter

Hourly Weather History & Observations

Time (EST) Temp. Dew Point Humidity Pressure Visibility Wind Dir Wind Speed Gust Speed Precip Events Conditions
12:53 AM 73.0 °F 66.0 °F 79% 30.13 in 10.0 mi North 5.8 mph - N/A   Mostly Cloudy
1:29 AM 69.8 °F 64.4 °F 83% 30.13 in 10.0 mi North 6.9 mph - N/A   Mostly Cloudy
1:53 AM 70.0 °F 64.9 °F 84% 30.13 in 10.0 mi Variable 5.8 mph - N/A   Mostly Cloudy
2:53 AM 69.1 °F 63.0 °F 81% 30.13 in 10.0 mi NNW 9.2 mph - N/A   Mostly Cloudy
3:53 AM 68.0 °F 62.1 °F 81% 30.12 in 10.0 mi NNW 6.9 mph - N/A   Scattered Clouds
4:53 AM 68.0 °F 62.1 °F 81% 30.12 in 10.0 mi North 5.8 mph - N/A   Overcast
5:32 AM 69.8 °F 62.6 °F 78% 30.14 in 10.0 mi North 5.8 mph - N/A   Overcast
5:53 AM 69.1 °F 62.1 °F 78% 30.15 in 10.0 mi North 8.1 mph - N/A   Overcast
6:12 AM 69.8 °F 62.6 °F 78% 30.16 in 10.0 mi North 4.6 mph - 0.00 in Rain Light Rain
6:53 AM 69.1 °F 64.0 °F 84% 30.17 in 10.0 mi North 4.6 mph - 0.00 in   Mostly Cloudy
7:53 AM 71.1 °F 66.0 °F 84% 30.18 in 10.0 mi NNE 8.1 mph - N/A   Mostly Cloudy
8:53 AM 73.0 °F 66.9 °F 81% 30.20 in 10.0 mi NE 8.1 mph - N/A   Mostly Cloudy
9:53 AM 75.9 °F 68.0 °F 76% 30.22 in 10.0 mi Variable 5.8 mph - N/A   Mostly Cloudy
10:11 AM 73.4 °F 66.2 °F 78% 30.22 in 10.0 mi North 8.1 mph - N/A   Mostly Cloudy
10:53 AM 75.0 °F 68.0 °F 79% 30.21 in 10.0 mi Variable 3.5 mph - 0.00 in   Overcast
11:53 AM 75.9 °F 66.9 °F 74% 30.20 in 10.0 mi NNE 11.5 mph 19.6 mph N/A   Overcast
12:53 PM 75.9 °F 64.9 °F 69% 30.18 in 10.0 mi NE 12.7 mph 18.4 mph N/A   Overcast
1:26 PM 75.2 °F 64.4 °F 69% 30.16 in 10.0 mi ENE 15.0 mph 20.7 mph 0.00 in Rain Light Rain
1:53 PM 77.0 °F 64.0 °F 64% 30.16 in 10.0 mi NE 15.0 mph 20.7 mph 0.00 in   Overcast
2:53 PM 75.9 °F 63.0 °F 64% 30.15 in 10.0 mi NE 15.0 mph 23.0 mph N/A   Overcast
3:53 PM 75.0 °F 63.0 °F 66% 30.16 in 10.0 mi NE 15.0 mph 20.7 mph N/A   Overcast
4:53 PM 73.0 °F 64.0 °F 73% 30.17 in 10.0 mi NE 11.5 mph 20.7 mph N/A   Overcast
5:24 PM 73.4 °F 64.4 °F 73% 30.17 in 10.0 mi NE 11.5 mph - N/A   Overcast
5:53 PM 72.0 °F 64.9 °F 78% 30.18 in 10.0 mi ENE 11.5 mph 19.6 mph N/A   Overcast
6:53 PM 73.9 °F 64.9 °F 73% 30.19 in 10.0 mi NE 11.5 mph 16.1 mph N/A   Overcast
7:53 PM 73.9 °F 64.9 °F 73% 30.21 in 10.0 mi NE 10.4 mph 17.3 mph N/A   Overcast
8:53 PM 73.9 °F 64.9 °F 73% 30.22 in 10.0 mi NE 10.4 mph 17.3 mph N/A   Overcast
9:53 PM 73.0 °F 64.0 °F 73% 30.23 in 10.0 mi NE 10.4 mph 21.9 mph 0.00 in Rain Light Rain
10:53 PM 73.9 °F 63.0 °F 68% 30.21 in 10.0 mi ENE 11.5 mph - 0.00 in   Overcast
11:53 PM 75.0 °F 64.0 °F 69% 30.19 in 10.0 mi ENE 11.5 mph - N/A   Overcast